Weather History for LOWS - April, 2013

Change the Weather History Date:

Tuesday, April 9, 2013

  Actual Average Record
Temperature  
Mean Temperature 47 °F -  
Max Temperature 58 °F 58 °F 69 °F (2009)
Min Temperature 36 °F 40 °F 26 °F (1997)
Degree Days  
Heating Degree Days 18    
Moisture  
Dew Point 38 °F    
Average Humidity 75    
Maximum Humidity 93    
Minimum Humidity 33    
Precipitation  
Precipitation 0.02 in 0.13 in - ()
Sea Level Pressure  
Sea Level Pressure 29.68 in    
Wind  
Wind Speed 4 mph ()    
Max Wind Speed 21 mph    
Max Gust Speed -    
Visibility 6.7 miles    
Events Rain    
Averages and records for this station are not official NWS values.
T = Trace of Precipitation, MM = Missing Value Source: Averaged Metar Reports

Daily Weather History Graph

Daily Weather History Graph

Search for Another Location

Airport or City:

Trip Planner

Search our weather history database for the weather conditions in past years. The results will help you decide how hot, cold, wet, or windy it might be!

Date:

Astronomy

Apr. 09, 2013 Rise Set
Actual Time 6:30 AM CEST 7:49 PM CEST
Civil Twilight 5:58 AM CEST 8:21 PM CEST
Nautical Twilight 5:20 AM CEST 9:00 PM CEST
Astronomical Twilight 4:38 AM CEST 9:41 PM CEST
Moon 5:47 AM CEST (4/9) 7:06 PM CEST (4/9)
Length of Visible Light 14h 22m
Length of Day
13h 18m
Waning Crescent, 1% of the Moon is Illuminated
Apr 9
Waning Crescent
Apr 10
New
Apr 18
First Quarter
Apr 25
Full
May 2
Last Quarter

Hourly Weather History & Observations

Time (CEST) Temp. Windchill Dew Point Humidity Pressure Visibility Wind Dir Wind Speed Gust Speed Precip Events Conditions
12:20 AM 39.2 °F - 35.6 °F 87% 29.68 in 6.2 mi Variable 1.2 mph - N/A   Overcast
12:50 AM 39.2 °F - 35.6 °F 87% 29.68 in 6.2 mi SW 2.3 mph - N/A   Overcast
1:20 AM 39.2 °F - 35.6 °F 87% 29.68 in 6.2 mi WNW 2.3 mph - N/A   Partly Cloudy
1:50 AM 39.2 °F - 35.6 °F 87% 29.68 in 6.2 mi Variable 2.3 mph - N/A   Mostly Cloudy
2:00 AM 40 °F - 35 °F 78% 29.74 in 7 mi 2.2 mph - -  
2:20 AM 41.0 °F 38.0 °F 35.6 °F 81% 29.68 in 6.2 mi NW 4.6 mph - N/A Rain Light Rain
2:50 AM 41.0 °F 38.0 °F 39.2 °F 93% 29.68 in 5.6 mi NNW 4.6 mph - N/A Rain Light Rain
3:20 AM 39.2 °F - 37.4 °F 93% 29.71 in 5.6 mi ESE 2.3 mph - N/A   Light Drizzle
3:50 AM 39.2 °F - 37.4 °F 93% 29.71 in 5.6 mi Variable 2.3 mph - N/A   Mostly Cloudy
4:20 AM 39.2 °F 35.9 °F 37.4 °F 93% 29.71 in 5.6 mi SE 4.6 mph - N/A   Mostly Cloudy
4:50 AM 39.2 °F 35.9 °F 37.4 °F 93% 29.68 in 5.0 mi SE 4.6 mph - N/A   Mostly Cloudy
5:00 AM 39 °F - 37 °F 92% 29.74 in 5 mi SE 4.5 mph - -   Partly Cloudy
5:20 AM 39.2 °F 35.9 °F 37.4 °F 93% 29.68 in 5.0 mi SSE 4.6 mph - N/A   Scattered Clouds
5:50 AM 37.4 °F 33.8 °F 35.6 °F 93% 29.68 in 5.6 mi SSE 4.6 mph - N/A   Scattered Clouds
6:20 AM 37.4 °F 32.8 °F 35.6 °F 93% 29.68 in 5.0 mi South 5.8 mph - N/A   Scattered Clouds
6:50 AM 37.4 °F 31.4 °F 35.6 °F 93% 29.68 in 6.2 mi SSE 8.1 mph - N/A   Scattered Clouds
7:20 AM 39.2 °F 33.6 °F 35.6 °F 87% 29.71 in 6.2 mi SSE 8.1 mph - N/A   Mostly Cloudy
7:50 AM 39.2 °F 34.2 °F 37.4 °F 93% 29.71 in 6.2 mi South 6.9 mph - N/A   Mostly Cloudy
8:00 AM 40 °F - 37 °F 85% 29.76 in 6 mi South 6.7 mph - -  
8:20 AM 41.0 °F 35.8 °F 37.4 °F 87% 29.71 in 6.2 mi SSE 8.1 mph - N/A   Mostly Cloudy
8:50 AM 41.0 °F 35.8 °F 37.4 °F 87% 29.71 in 6.2 mi SSE 8.1 mph - N/A Rain Light Rain
9:20 AM 41.0 °F 38.0 °F 37.4 °F 87% 29.71 in 6.2 mi SSE 4.6 mph - N/A   Mostly Cloudy
9:50 AM 44.6 °F 42.2 °F 37.4 °F 76% 29.71 in 6.2 mi South 4.6 mph - N/A   Scattered Clouds
10:20 AM 46.4 °F - 37.4 °F 71% 29.71 in 6.2 mi Variable 2.3 mph - N/A   Scattered Clouds
10:50 AM 48.2 °F - 37.4 °F 66% 29.71 in 6.2 mi Variable 2.3 mph - N/A   Partly Cloudy
11:00 AM 49 °F - 38 °F 56% 29.74 in 12 mi 2.2 mph - -   Partly Cloudy
11:20 AM 50.0 °F - 37.4 °F 62% 29.71 in 6.2 mi Variable 2.3 mph - N/A   Partly Cloudy
11:50 AM 50.0 °F - 37.4 °F 62% 29.68 in 6.2 mi Variable 3.5 mph - N/A   Partly Cloudy
12:20 PM 51.8 °F - 35.6 °F 54% 29.68 in 6.2 mi South 3.5 mph - N/A   Partly Cloudy
12:50 PM 51.8 °F - 35.6 °F 54% 29.65 in 6.2 mi West 3.5 mph - N/A   Partly Cloudy
1:20 PM 53.6 °F - 35.6 °F 51% 29.65 in 6.2 mi Variable 5.8 mph - N/A   Scattered Clouds
1:50 PM 55.4 °F - 35.6 °F 47% 29.62 in 6.2 mi ENE 6.9 mph - N/A   Mostly Cloudy
2:00 PM 55 °F - 36 °F 37% 29.63 in 19 mi ENE 6.7 mph - -   Partly Cloudy
2:20 PM 55.4 °F - 37.4 °F 51% 29.62 in 6.2 mi NE 8.1 mph - N/A   Scattered Clouds
2:50 PM 57.2 °F - 37.4 °F 48% 29.59 in 6.2 mi NE 6.9 mph - N/A   Partly Cloudy
3:20 PM 59.0 °F - 37.4 °F 45% 29.56 in 6.2 mi North 6.9 mph - N/A   Mostly Cloudy
3:50 PM 59.0 °F - 35.6 °F 42% 29.56 in 6.2 mi NE 8.1 mph - N/A   Mostly Cloudy
4:20 PM 57.2 °F - 35.6 °F 44% 29.56 in 6.2 mi North 10.4 mph - N/A   Mostly Cloudy
4:50 PM 57.2 °F - 35.6 °F 44% 29.56 in 6.2 mi NNE 10.4 mph - N/A   Mostly Cloudy
5:00 PM 57 °F - 36 °F 33% 29.57 in 19 mi NNE 11.2 mph - -   Overcast
5:20 PM 55.4 °F - 37.4 °F 51% 29.56 in 6.2 mi North 9.2 mph - N/A   Mostly Cloudy
5:50 PM 55.4 °F - 37.4 °F 51% 29.59 in 6.2 mi North 8.1 mph - N/A Rain Light Rain Showers
6:20 PM 50.0 °F - 39.2 °F 66% 29.65 in 6.2 mi WNW 20.7 mph - N/A Rain Light Rain Showers
6:50 PM 46.4 °F 40.4 °F 42.8 °F 87% 29.65 in 6.2 mi NNW 13.8 mph - N/A   Mostly Cloudy
7:20 PM 44.6 °F 42.2 °F 42.8 °F 93% 29.68 in 6.2 mi ENE 4.6 mph - N/A   Mostly Cloudy
7:50 PM 46.4 °F 44.3 °F 41.0 °F 81% 29.68 in 6.2 mi East 4.6 mph - N/A   Mostly Cloudy
8:00 PM 46 °F - 42 °F 80% 29.72 in 22 mi East 4.5 mph - -   Partly Cloudy
8:20 PM 46.4 °F - 41.0 °F 81% 29.71 in 6.2 mi Variable 2.3 mph - N/A   Mostly Cloudy
8:50 PM 44.6 °F - 42.8 °F 93% 29.71 in 6.2 mi Variable 1.2 mph - N/A   Mostly Cloudy
9:20 PM 44.6 °F 42.2 °F 41.0 °F 87% 29.71 in 6.2 mi South 4.6 mph - N/A   Mostly Cloudy
9:50 PM 44.6 °F 42.2 °F 41.0 °F 87% 29.71 in 6.2 mi SSE 4.6 mph - N/A   Mostly Cloudy
10:20 PM 44.6 °F 42.2 °F 41.0 °F 87% 29.71 in 6.2 mi SSE 4.6 mph - N/A   Scattered Clouds
10:50 PM 42.8 °F 38.6 °F 39.2 °F 87% 29.71 in 6.2 mi SSE 6.9 mph - N/A   Scattered Clouds
11:00 PM 43 °F - 40 °F 83% 29.76 in 12 mi SSE 6.7 mph - -   Scattered Clouds
11:20 PM 41.0 °F - 39.2 °F 93% 29.71 in 6.2 mi Variable 2.3 mph - N/A   Partly Cloudy
11:50 PM 41.0 °F - 39.2 °F 93% 29.71 in 6.2 mi SSE 2.3 mph - N/A   Partly Cloudy